Home   Weather   Glasgow   Past weeks
Flag for United Kingdom

Past Weather in Glasgow, Scotland, United Kingdom — Yesterday and Last 2 Weeks

Now
54 °F

Cool.


Feels Like: 52 °F
Forecast: 54 / 43 °F
Wind: 7 mph from East

Location: Glasgow Airport

Current Time: Oct 14, 2019 at 3:05:02 pm

Latest Report: Oct 14, 2019 at 2:20 pm


Visibility: N/A

Pressure: 29.74 "Hg

Humidity: 77%

Dew Point: 46 °F

Location of GlasgowLocation

Past Weather in Glasgow — Graph

°F

Glasgow Temperature Yesterday

Maximum temperature yesterday: 50 °F (at 12:20 pm)
Minimum temperature yesterday: 37 °F (at 2:50 am)
Average temperature yesterday: 45 °F

High & Low Weather Summary for the Past Weeks

 TemperatureHumidityPressure
High63 °F (Sep 29, 3:20 pm)100% (Sep 30, 12:50 am)30.15 "Hg (Sep 30, 12:50 am)
Low32 °F (Oct 2, 1:50 am)51% (Oct 1, 1:50 pm)29.30 "Hg (Oct 8, 2:20 pm)
Average50 °F86%29.66 "Hg
* Reported Sep 29 1:20 pm — Oct 14 1:50 pm, Glasgow. Weather by CustomWeather, © 2019

Note: Actual official high and low records may vary slightly from our data, if they occured in-between our weather recording intervals... More about our weather records

Advertising

Glasgow Weather History for the Previous 24 Hours

Scroll right to see more
 ConditionsComfort  
Time TempWeatherWind HumidityBarometerVisibility
1:50 pm
Mon, Oct 14
52 °FCool.7 mph82%29.74 "HgN/A
1:20 pm52 °FCool.6 mph82%29.77 "HgN/A
12:50 pm52 °FPassing clouds.6 mph82%29.77 "HgN/A
12:20 pm52 °FPassing clouds.6 mph82%29.77 "HgN/A
11:50 am50 °FCool.5 mph82%29.77 "HgN/A
11:20 am50 °FCool.6 mph88%29.77 "HgN/A
10:50 am50 °FCool.6 mph82%29.77 "HgN/A
10:20 am48 °FPassing clouds.5 mph94%29.77 "HgN/A
9:50 am48 °FPartly sunny.3 mph94%29.77 "HgN/A
8:50 am46 °FOvercast.3 mph93%29.77 "HgN/A
8:20 am46 °FOvercast.2 mph93%29.77 "HgN/A
7:50 am46 °FOvercast.3 mph100%29.77 "Hg6 mi
7:20 am46 °FLow clouds.3 mph100%29.74 "Hg5 mi
6:50 am46 °FLow clouds.5 mph100%29.74 "HgN/A
6:20 am46 °FOvercast.2 mph93%29.74 "Hg5 mi
5:50 am45 °FOvercast.3 mph100%29.74 "Hg4 mi
5:20 am45 °FFog.3 mph100%29.74 "Hg3 mi
4:50 am45 °FFog.2 mph100%29.74 "Hg3 mi
4:20 am45 °FFog.3 mph100%29.74 "Hg3 mi
3:50 am45 °FFog.5 mph100%29.74 "Hg3 mi
3:20 am45 °FFog.1 mph93%29.71 "Hg1 mi
2:50 am41 °FQuite cool.3 mph100%29.71 "Hg4 mi
2:20 am45 °FQuite cool.1 mph100%29.71 "Hg3 mi
1:50 am45 °FQuite cool.2 mph100%29.71 "Hg3 mi
1:20 am43 °FFog.2 mph100%29.68 "Hg1 mi
12:50 am45 °FFog.3 mph100%29.68 "HgN/A
12:20 am46 °FPassing clouds.2 mph100%29.68 "Hg4 mi
11:50 pm
Sun, Oct 13
46 °FFog.3 mph100%29.68 "Hg3 mi
11:20 pm46 °FOvercast.3 mph100%29.65 "Hg6 mi
10:50 pm46 °FMostly cloudy.2 mph100%29.65 "HgN/A
10:20 pm46 °FLight rain. Passing clouds.5 mph100%29.65 "HgN/A
9:50 pm48 °FLight rain. Partly cloudy.6 mph94%29.65 "Hg5 mi
9:20 pm48 °FLight rain. Partly cloudy.6 mph94%29.62 "Hg4 mi
8:50 pm46 °FLight rain. Partly cloudy.6 mph100%29.62 "Hg4 mi
8:20 pm48 °FLight rain. Passing clouds.2 mph94%29.59 "Hg4 mi
7:50 pm48 °FLight rain. Passing clouds.2 mph94%29.59 "Hg4 mi
7:20 pm48 °FLight rain. Passing clouds.5 mph100%29.59 "Hg4 mi
6:50 pm48 °FLight rain. Mostly cloudy.5 mph100%29.56 "Hg4 mi
6:20 pm48 °FRain. Broken clouds.2 mph100%29.56 "Hg2 mi
5:50 pm48 °FLight rain. Partly sunny.3 mph100%29.56 "Hg4 mi
5:20 pm48 °FLight rain. Cloudy.5 mph100%29.53 "Hg4 mi
4:50 pm50 °FLight rain. More clouds than sun.3 mph94%29.53 "Hg4 mi
4:20 pm50 °FLight rain. Broken clouds.3 mph94%29.53 "Hg6 mi
3:50 pm50 °FLight rain. Partly sunny.3 mph94%29.53 "Hg4 mi
3:20 pm50 °FLight rain. Partly sunny.3 mph94%29.53 "HgN/A
Weather by CustomWeather, © 2019

See weather overview